AXB2176 VERC-VOBL

Flight info

Callsign AXB2176
Flight time 2h 12m
Altitude 36000
Route JH DCT PUNID DCT BILUN/N0463F370 DCT VVZ/N0467F360 DCT XOPOX DCT GOPNU DCT DOKET DCT GURAS DCT MMV DCT KKP DCT LAXIK
Aircraft A20N/M-SDE2E3FGHIRWXY/LB1

Departure

Time 2026-04-14 12:06
Airport Birsa Munda Airport (VERC)

Arrival

Time 2026-04-14 14:18
Airport Kempegowda International Airport Bengaluru (VOBL)
Time Latitude Longitude Altitude Speed Heading
2026-04-14 11:48 23.31632 85.32491 2148 ft 0 kts 32°
2026-04-14 11:56 23.31616 85.32480 2148 ft 2 kts 32°
2026-04-14 11:56 23.31605 85.32469 2148 ft 2 kts 71°
2026-04-14 11:57 23.31605 85.32453 2144 ft 2 kts 129°
2026-04-14 11:57 23.31601 85.32458 2145 ft 0 kts 132°
2026-04-14 11:59 23.31600 85.32458 2145 ft 1 kts 132°
2026-04-14 12:00 23.31577 85.32485 2148 ft 10 kts 137°
2026-04-14 12:00 23.31505 85.32501 2148 ft 11 kts 186°
2026-04-14 12:00 23.31430 85.32492 2146 ft 11 kts 188°
2026-04-14 12:00 23.31364 85.32483 2142 ft 0 kts 188°
2026-04-14 12:02 23.31329 85.32478 2138 ft 11 kts 187°
2026-04-14 12:02 23.31226 85.32493 2131 ft 18 kts 144°
2026-04-14 12:02 23.31138 85.32594 2128 ft 20 kts 131°
2026-04-14 12:02 23.31039 85.32716 2127 ft 23 kts 131°
2026-04-14 12:03 23.30926 85.32855 2124 ft 26 kts 131°
2026-04-14 12:03 23.30801 85.33006 2120 ft 26 kts 131°
2026-04-14 12:03 23.30728 85.33148 2121 ft 18 kts 105°
2026-04-14 12:03 23.30687 85.33163 2118 ft 3 kts 260°
2026-04-14 12:04 23.30688 85.33158 2118 ft 1 kts 270°
2026-04-14 12:04 23.30694 85.33142 2118 ft 2 kts 304°
2026-04-14 12:05 23.30704 85.33127 2120 ft 19 kts 305°
2026-04-14 12:05 23.30970 85.32799 2124 ft 94 kts 311°
2026-04-14 12:05 23.31543 85.32091 2139 ft 153 kts 310°
2026-04-14 12:05 23.32274 85.31185 2712 ft 158 kts 311°
2026-04-14 12:06 23.32998 85.30330 3564 ft 152 kts 313°
2026-04-14 12:06 23.33734 85.29488 4097 ft 160 kts 312°
2026-04-14 12:06 23.34520 85.28570 4524 ft 172 kts 311°
2026-04-14 12:06 23.35349 85.27548 4949 ft 187 kts 310°
2026-04-14 12:07 23.36191 85.26435 5456 ft 196 kts 308°
2026-04-14 12:07 23.37083 85.25246 5813 ft 213 kts 309°
2026-04-14 12:07 23.38114 85.23954 6068 ft 237 kts 310°
2026-04-14 12:07 23.39217 85.22522 6468 ft 257 kts 301°
2026-04-14 12:08 23.39860 85.20670 6933 ft 268 kts 276°
2026-04-14 12:08 23.39667 85.18653 7683 ft 273 kts 251°
2026-04-14 12:08 23.38633 85.16927 8492 ft 278 kts 225°
2026-04-14 12:08 23.37091 85.15628 9299 ft 282 kts 218°
2026-04-14 12:09 23.35475 85.14389 10096 ft 286 kts 218°
2026-04-14 12:09 23.33795 85.13110 10454 ft 306 kts 218°
2026-04-14 12:09 23.31993 85.11720 10655 ft 328 kts 218°
2026-04-14 12:09 23.30096 85.10244 11129 ft 339 kts 219°
2026-04-14 12:10 23.28182 85.08753 11915 ft 340 kts 219°
2026-04-14 12:10 23.26247 85.07243 12608 ft 344 kts 220°
2026-04-14 12:10 23.24295 85.05718 13313 ft 347 kts 220°
2026-04-14 12:10 23.22324 85.04176 13986 ft 351 kts 221°
2026-04-14 12:11 23.21008 85.03146 14366 ft 354 kts 221°
2026-04-14 12:11 23.18998 85.01573 14954 ft 357 kts 221°
2026-04-14 12:11 23.16288 84.99452 15752 ft 361 kts 221°
2026-04-14 12:11 23.14936 84.98395 16131 ft 364 kts 221°
2026-04-14 12:12 23.12867 84.96777 16692 ft 368 kts 221°
2026-04-14 12:12 23.10781 84.95147 17236 ft 371 kts 221°
2026-04-14 12:12 23.08671 84.93498 17745 ft 376 kts 222°
2026-04-14 12:12 23.06540 84.91834 18281 ft 379 kts 222°
2026-04-14 12:13 23.04398 84.90163 18778 ft 380 kts 222°
2026-04-14 12:13 23.01547 84.87940 19481 ft 382 kts 221°
2026-04-14 12:13 23.00091 84.86805 19810 ft 383 kts 221°
2026-04-14 12:13 22.97920 84.85110 20283 ft 386 kts 221°
2026-04-14 12:14 22.95734 84.83405 20796 ft 388 kts 221°
2026-04-14 12:14 22.93569 84.81718 21297 ft 389 kts 221°
2026-04-14 12:14 22.91339 84.79980 21814 ft 391 kts 221°
2026-04-14 12:14 22.89151 84.78276 22296 ft 393 kts 221°
2026-04-14 12:15 22.86926 84.76542 22799 ft 395 kts 221°
2026-04-14 12:15 22.84686 84.74798 23264 ft 398 kts 221°
2026-04-14 12:15 22.82432 84.73045 23695 ft 400 kts 221°
2026-04-14 12:15 22.80165 84.71283 24078 ft 402 kts 221°
2026-04-14 12:16 22.77885 84.69511 24454 ft 405 kts 221°
2026-04-14 12:16 22.75587 84.67727 24845 ft 407 kts 221°
2026-04-14 12:16 22.73280 84.65936 25207 ft 410 kts 221°
2026-04-14 12:16 22.70956 84.64132 25579 ft 412 kts 221°
2026-04-14 12:17 22.68615 84.62316 25924 ft 415 kts 221°
2026-04-14 12:17 22.66262 84.60492 26301 ft 417 kts 221°
2026-04-14 12:17 22.63897 84.58659 26651 ft 420 kts 220°
2026-04-14 12:17 22.61516 84.56815 26992 ft 422 kts 220°
2026-04-14 12:18 22.59120 84.54960 27332 ft 425 kts 220°
2026-04-14 12:18 22.56712 84.53097 27680 ft 427 kts 220°
2026-04-14 12:18 22.54293 84.51225 28009 ft 429 kts 220°
2026-04-14 12:18 22.51858 84.49343 28331 ft 432 kts 220°
2026-04-14 12:19 22.49406 84.47448 28641 ft 434 kts 220°
2026-04-14 12:19 22.46942 84.45544 28956 ft 436 kts 220°
2026-04-14 12:19 22.44462 84.43630 29269 ft 439 kts 220°
2026-04-14 12:19 22.41973 84.41709 29581 ft 441 kts 220°
2026-04-14 12:20 22.39469 84.39777 29902 ft 443 kts 220°
2026-04-14 12:20 22.36982 84.37860 30181 ft 446 kts 220°
2026-04-14 12:20 22.34454 84.35912 30452 ft 448 kts 220°
2026-04-14 12:20 22.31915 84.33957 30749 ft 449 kts 220°
2026-04-14 12:21 22.29365 84.31994 31070 ft 450 kts 220°
2026-04-14 12:21 22.26817 84.30034 31448 ft 449 kts 220°
2026-04-14 12:21 22.24278 84.28082 31830 ft 448 kts 220°
2026-04-14 12:21 22.21738 84.26130 32194 ft 447 kts 220°
2026-04-14 12:22 22.19210 84.24188 32553 ft 446 kts 220°
2026-04-14 12:22 22.16680 84.22244 32906 ft 446 kts 220°
2026-04-14 12:22 22.14157 84.20307 33260 ft 445 kts 220°
2026-04-14 12:22 22.11642 84.18376 33602 ft 444 kts 220°
2026-04-14 12:23 22.09130 84.16449 33916 ft 443 kts 220°
2026-04-14 12:23 22.06623 84.14527 34191 ft 442 kts 220°
2026-04-14 12:23 22.04118 84.12608 34455 ft 441 kts 220°
2026-04-14 12:23 22.01626 84.10698 34738 ft 439 kts 220°
2026-04-14 12:24 21.99138 84.08793 34995 ft 439 kts 220°
2026-04-14 12:24 21.96650 84.06889 35245 ft 438 kts 220°
2026-04-14 12:24 21.94168 84.04996 35496 ft 438 kts 219°
2026-04-14 12:24 21.91564 84.03276 35732 ft 441 kts 213°
2026-04-14 12:25 21.85956 84.00510 35801 ft 443 kts 209°
2026-04-14 12:25 21.80310 83.97851 35797 ft 444 kts 209°
2026-04-14 12:26 21.74651 83.95176 35792 ft 444 kts 209°
2026-04-14 12:26 21.68998 83.92506 35783 ft 444 kts 209°
2026-04-14 12:27 21.63334 83.89835 35775 ft 444 kts 209°
2026-04-14 12:27 21.57662 83.87162 35765 ft 445 kts 209°
2026-04-14 12:28 21.51990 83.84491 35763 ft 445 kts 208°
2026-04-14 12:28 21.46312 83.81819 35761 ft 446 kts 208°
2026-04-14 12:29 21.40630 83.79148 35752 ft 446 kts 208°
2026-04-14 12:29 21.34939 83.76475 35754 ft 447 kts 208°
2026-04-14 12:30 21.29277 83.73818 35749 ft 447 kts 208°
2026-04-14 12:30 21.23578 83.71146 35750 ft 447 kts 208°
2026-04-14 12:31 21.17837 83.68456 35745 ft 447 kts 208°
2026-04-14 12:31 21.12135 83.65788 35748 ft 448 kts 208°
2026-04-14 12:32 21.06465 83.63136 35750 ft 447 kts 208°
2026-04-14 12:32 21.00761 83.60471 35749 ft 447 kts 208°
2026-04-14 12:33 20.95054 83.57806 35753 ft 447 kts 208°
2026-04-14 12:33 20.89345 83.55144 35754 ft 447 kts 208°
2026-04-14 12:34 20.83642 83.52485 35752 ft 447 kts 208°
2026-04-14 12:34 20.77934 83.49827 35767 ft 447 kts 208°
2026-04-14 12:35 20.72228 83.47172 35760 ft 448 kts 208°
2026-04-14 12:35 20.66517 83.44517 35757 ft 448 kts 208°
2026-04-14 12:36 20.60798 83.41860 35763 ft 448 kts 208°
2026-04-14 12:36 20.55088 83.39209 35766 ft 448 kts 207°
2026-04-14 12:37 20.49369 83.36557 35760 ft 448 kts 207°
2026-04-14 12:37 20.43654 83.33909 35769 ft 448 kts 207°
2026-04-14 12:38 20.35079 83.29939 35773 ft 448 kts 207°
2026-04-14 12:39 20.29360 83.27294 35775 ft 448 kts 207°
2026-04-14 12:39 20.23634 83.24648 35775 ft 449 kts 207°
2026-04-14 12:40 20.17909 83.22005 35780 ft 449 kts 207°
2026-04-14 12:40 20.12179 83.19361 35776 ft 448 kts 207°
2026-04-14 12:41 20.06280 83.17256 35788 ft 454 kts 197°
2026-04-14 12:41 20.00101 83.15659 35788 ft 454 kts 198°
2026-04-14 12:42 19.93974 83.14055 35788 ft 453 kts 198°
2026-04-14 12:42 19.87852 83.12453 35795 ft 453 kts 198°
2026-04-14 12:43 19.81726 83.10852 35804 ft 453 kts 198°
2026-04-14 12:43 19.75603 83.09254 35811 ft 453 kts 198°
2026-04-14 12:44 19.69519 83.07667 35820 ft 453 kts 197°
2026-04-14 12:44 19.63393 83.06070 35830 ft 453 kts 197°
2026-04-14 12:45 19.54203 83.03677 35841 ft 453 kts 197°
2026-04-14 12:45 19.48073 83.02082 35849 ft 454 kts 197°
2026-04-14 12:46 19.41939 83.00488 35853 ft 454 kts 197°
2026-04-14 12:46 19.35808 82.98895 35866 ft 453 kts 197°
2026-04-14 12:47 19.29671 82.97302 35876 ft 455 kts 197°
2026-04-14 12:47 19.23527 82.95709 35882 ft 454 kts 197°
2026-04-14 12:48 19.17390 82.94119 35890 ft 455 kts 197°
2026-04-14 12:48 19.11243 82.92528 35895 ft 455 kts 197°
2026-04-14 12:49 19.05094 82.90937 35903 ft 455 kts 197°
2026-04-14 12:49 18.98947 82.89347 35909 ft 455 kts 197°
2026-04-14 12:50 18.89710 82.86961 35910 ft 455 kts 197°
2026-04-14 12:51 18.83545 82.85370 35912 ft 457 kts 197°
2026-04-14 12:51 18.77376 82.83779 35915 ft 457 kts 197°
2026-04-14 12:52 18.71141 82.82407 35914 ft 462 kts 187°
2026-04-14 12:52 18.67914 82.82452 35912 ft 467 kts 175°
2026-04-14 12:52 18.64722 82.83142 35917 ft 471 kts 165°
2026-04-14 12:53 18.58627 82.85717 35916 ft 472 kts 160°
2026-04-14 12:53 18.52558 82.88355 35913 ft 472 kts 160°
2026-04-14 12:54 18.46485 82.90986 35909 ft 472 kts 160°
2026-04-14 12:54 18.40409 82.93615 35904 ft 472 kts 160°
2026-04-14 12:55 18.34325 82.96246 35900 ft 472 kts 160°
2026-04-14 12:55 18.28253 82.98870 35891 ft 472 kts 160°
2026-04-14 12:56 18.22177 83.01494 35877 ft 471 kts 160°
2026-04-14 12:56 18.16100 83.04116 35872 ft 472 kts 160°
2026-04-14 12:57 18.10025 83.06736 35863 ft 472 kts 160°
2026-04-14 12:57 18.03939 83.09358 35847 ft 473 kts 160°
2026-04-14 12:58 17.97851 83.11979 35835 ft 473 kts 160°
2026-04-14 12:58 17.91751 83.14603 35833 ft 474 kts 160°
2026-04-14 12:59 17.86678 83.16784 35822 ft 474 kts 160°
2026-04-14 12:59 17.79551 83.19846 35829 ft 474 kts 160°
2026-04-14 13:00 17.74477 83.22007 35827 ft 473 kts 163°
2026-04-14 13:00 17.71312 83.22866 35830 ft 468 kts 174°
2026-04-14 13:00 17.68079 83.23074 35827 ft 465 kts 185°
2026-04-14 13:00 17.64892 83.22646 35835 ft 461 kts 196°
2026-04-14 13:01 17.61864 83.21616 35826 ft 456 kts 207°
2026-04-14 13:01 17.56459 83.18240 35807 ft 452 kts 216°
2026-04-14 13:02 17.51170 83.14659 35836 ft 452 kts 215°
2026-04-14 13:02 17.45877 83.11087 35830 ft 452 kts 215°
2026-04-14 13:03 17.40586 83.07517 35821 ft 452 kts 215°
2026-04-14 13:03 17.35299 83.03951 35820 ft 452 kts 215°
2026-04-14 13:04 17.30008 83.00386 35824 ft 452 kts 215°
2026-04-14 13:04 17.24718 82.96823 35821 ft 452 kts 215°
2026-04-14 13:05 17.19461 82.93285 35819 ft 452 kts 215°
2026-04-14 13:05 17.14172 82.89728 35818 ft 452 kts 215°
2026-04-14 13:06 17.08882 82.86173 35819 ft 452 kts 215°
2026-04-14 13:06 17.03597 82.82623 35821 ft 452 kts 215°
2026-04-14 13:07 16.98307 82.79072 35823 ft 452 kts 215°
2026-04-14 13:07 16.93021 82.75527 35828 ft 452 kts 215°
2026-04-14 13:08 16.87730 82.71981 35824 ft 452 kts 215°
2026-04-14 13:08 16.82451 82.68445 35826 ft 451 kts 215°
2026-04-14 13:09 16.77155 82.64900 35831 ft 452 kts 215°
2026-04-14 13:09 16.71863 82.61367 35836 ft 451 kts 215°
2026-04-14 13:10 16.66568 82.57842 35834 ft 452 kts 215°
2026-04-14 13:10 16.61271 82.54315 35836 ft 452 kts 215°
2026-04-14 13:11 16.55972 82.50789 35837 ft 452 kts 215°
2026-04-14 13:11 16.50673 82.47265 35840 ft 452 kts 215°
2026-04-14 13:12 16.45366 82.43739 35839 ft 452 kts 215°
2026-04-14 13:12 16.40057 82.40214 35842 ft 452 kts 215°
2026-04-14 13:13 16.34753 82.36693 35842 ft 452 kts 215°
2026-04-14 13:13 16.29480 82.33196 35843 ft 452 kts 215°
2026-04-14 13:14 16.24168 82.29675 35846 ft 453 kts 215°
2026-04-14 13:14 16.18855 82.26156 35844 ft 453 kts 214°
2026-04-14 13:15 16.13541 82.22638 35846 ft 453 kts 214°
2026-04-14 13:15 16.08222 82.19119 35845 ft 453 kts 214°
2026-04-14 13:16 16.02901 82.15602 35845 ft 453 kts 214°
2026-04-14 13:16 15.97576 82.12084 35845 ft 454 kts 214°
2026-04-14 13:17 15.92250 82.08567 35846 ft 454 kts 214°
2026-04-14 13:17 15.86923 82.05052 35847 ft 454 kts 214°
2026-04-14 13:18 15.81603 82.01510 35845 ft 454 kts 215°
2026-04-14 13:18 15.76312 81.97927 35846 ft 454 kts 215°
2026-04-14 13:19 15.71014 81.94348 35847 ft 454 kts 215°
2026-04-14 13:19 15.65710 81.90774 35850 ft 455 kts 215°
2026-04-14 13:20 15.60437 81.87225 35847 ft 455 kts 215°
2026-04-14 13:20 15.55125 81.83651 35847 ft 455 kts 214°
2026-04-14 13:21 15.49772 81.80139 35844 ft 456 kts 214°
2026-04-14 13:21 15.44400 81.76646 35844 ft 456 kts 214°
2026-04-14 13:22 15.39028 81.73143 35847 ft 456 kts 214°
2026-04-14 13:22 15.33648 81.69632 35846 ft 457 kts 214°
2026-04-14 13:23 15.28272 81.66125 35850 ft 457 kts 214°
2026-04-14 13:23 15.22885 81.62614 35847 ft 458 kts 214°
2026-04-14 13:24 15.17494 81.59102 35847 ft 458 kts 214°
2026-04-14 13:24 15.09402 81.53835 35848 ft 458 kts 213°
2026-04-14 13:25 15.04007 81.50326 35850 ft 458 kts 213°
2026-04-14 13:26 14.93215 81.43313 35846 ft 458 kts 213°
2026-04-14 13:26 14.87811 81.39804 35845 ft 458 kts 213°
2026-04-14 13:27 14.82413 81.36302 35845 ft 458 kts 213°
2026-04-14 13:27 14.77012 81.32800 35846 ft 458 kts 213°
2026-04-14 13:28 14.71608 81.29297 35845 ft 458 kts 213°
2026-04-14 13:28 14.66208 81.25800 35844 ft 458 kts 213°
2026-04-14 13:29 14.60808 81.22304 35843 ft 458 kts 213°
2026-04-14 13:29 14.55405 81.18809 35848 ft 458 kts 213°
2026-04-14 13:30 14.50000 81.15315 35844 ft 458 kts 213°
2026-04-14 13:30 14.44595 81.11822 35845 ft 458 kts 213°
2026-04-14 13:31 14.39189 81.08332 35845 ft 458 kts 213°
2026-04-14 13:31 14.33791 81.04848 35843 ft 458 kts 213°
2026-04-14 13:32 14.28385 81.01360 35844 ft 458 kts 213°
2026-04-14 13:32 14.22982 80.97877 35846 ft 458 kts 213°
2026-04-14 13:33 14.17613 80.94417 35841 ft 458 kts 213°
2026-04-14 13:33 14.12208 80.90937 35843 ft 458 kts 213°
2026-04-14 13:34 14.04100 80.85719 35844 ft 458 kts 213°
2026-04-14 13:35 13.98693 80.82235 35838 ft 458 kts 214°
2026-04-14 13:35 13.93353 80.78651 35840 ft 458 kts 215°
2026-04-14 13:36 13.88026 80.75056 35840 ft 458 kts 214°
2026-04-14 13:36 13.82684 80.71472 35841 ft 458 kts 214°
2026-04-14 13:37 13.77345 80.67896 35835 ft 458 kts 214°
2026-04-14 13:37 13.72000 80.64320 35834 ft 458 kts 214°
2026-04-14 13:38 13.66661 80.60751 35833 ft 458 kts 214°
2026-04-14 13:38 13.61321 80.57181 35833 ft 458 kts 214°
2026-04-14 13:39 13.55980 80.53613 35831 ft 458 kts 214°
2026-04-14 13:39 13.50633 80.50042 35828 ft 458 kts 214°
2026-04-14 13:40 13.45295 80.46479 35829 ft 458 kts 214°
2026-04-14 13:40 13.39946 80.42912 35826 ft 458 kts 214°
2026-04-14 13:41 13.34641 80.39376 35826 ft 458 kts 214°
2026-04-14 13:41 13.29260 80.35792 35827 ft 458 kts 214°
2026-04-14 13:42 13.24218 80.32433 35826 ft 458 kts 214°
2026-04-14 13:42 13.18869 80.28873 35827 ft 458 kts 214°
2026-04-14 13:43 13.13525 80.25317 35827 ft 458 kts 214°
2026-04-14 13:43 13.08174 80.21761 35828 ft 458 kts 214°
2026-04-14 13:44 13.02833 80.18191 35828 ft 458 kts 217°
2026-04-14 13:44 12.98311 80.13656 35831 ft 455 kts 235°
2026-04-14 13:45 12.95302 80.07980 35829 ft 454 kts 246°
2026-04-14 13:45 12.92619 80.02126 35829 ft 454 kts 245°
2026-04-14 13:46 12.89924 79.96272 35827 ft 454 kts 245°
2026-04-14 13:46 12.87229 79.90422 35825 ft 454 kts 245°
2026-04-14 13:47 12.84534 79.84568 35832 ft 454 kts 245°
2026-04-14 13:47 12.81837 79.78715 35832 ft 454 kts 245°
2026-04-14 13:48 12.78895 79.72999 35832 ft 455 kts 237°
2026-04-14 13:48 12.75598 79.68802 35832 ft 456 kts 226°
2026-04-14 13:49 12.70915 79.64419 35831 ft 456 kts 223°
2026-04-14 13:49 12.66198 79.60064 35835 ft 456 kts 223°
2026-04-14 13:50 12.61485 79.55713 35837 ft 456 kts 223°
2026-04-14 13:50 12.56989 79.51173 35594 ft 451 kts 233°
2026-04-14 13:50 12.55280 79.48485 35033 ft 451 kts 244°
2026-04-14 13:51 12.54106 79.45507 34269 ft 452 kts 255°
2026-04-14 13:51 12.53516 79.42344 33438 ft 454 kts 266°
2026-04-14 13:51 12.53526 79.39113 32562 ft 456 kts 277°
2026-04-14 13:51 12.54134 79.35923 31668 ft 459 kts 288°
2026-04-14 13:52 12.55279 79.32856 30768 ft 463 kts 293°
2026-04-14 13:52 12.56547 79.29815 29931 ft 466 kts 294°
2026-04-14 13:52 12.57850 79.26778 29211 ft 464 kts 294°
2026-04-14 13:52 12.59167 79.23788 28627 ft 458 kts 295°
2026-04-14 13:53 12.60501 79.20840 27980 ft 455 kts 296°
2026-04-14 13:53 12.61855 79.17923 27364 ft 451 kts 296°
2026-04-14 13:53 12.63223 79.15049 26759 ft 448 kts 297°
2026-04-14 13:53 12.64612 79.12206 26169 ft 445 kts 297°
2026-04-14 13:54 12.66016 79.09398 25594 ft 442 kts 298°
2026-04-14 13:54 12.67440 79.06622 25041 ft 438 kts 299°
2026-04-14 13:54 12.68877 79.03887 24506 ft 435 kts 299°
2026-04-14 13:54 12.70332 79.01184 23984 ft 432 kts 300°
2026-04-14 13:55 12.71784 78.98548 23456 ft 429 kts 301°
2026-04-14 13:55 12.73270 78.95914 22862 ft 425 kts 301°
2026-04-14 13:55 12.74761 78.93322 22304 ft 421 kts 300°
2026-04-14 13:55 12.75894 78.90571 21723 ft 419 kts 286°
2026-04-14 13:56 12.76366 78.87648 21139 ft 417 kts 277°
2026-04-14 13:56 12.76671 78.84694 20561 ft 415 kts 277°
2026-04-14 13:56 12.76968 78.81760 20002 ft 412 kts 277°
2026-04-14 13:56 12.77261 78.78853 19460 ft 409 kts 277°
2026-04-14 13:57 12.77553 78.75963 18939 ft 407 kts 277°
2026-04-14 13:57 12.77844 78.73080 18393 ft 405 kts 277°
2026-04-14 13:57 12.78133 78.70219 17831 ft 403 kts 277°
2026-04-14 13:57 12.78420 78.67384 17312 ft 398 kts 277°
2026-04-14 13:58 12.78704 78.64573 16798 ft 395 kts 277°
2026-04-14 13:58 12.78985 78.61790 16294 ft 391 kts 277°
2026-04-14 13:58 12.79263 78.59035 15803 ft 387 kts 277°
2026-04-14 13:58 12.79538 78.56305 15311 ft 384 kts 277°
2026-04-14 13:59 12.79811 78.53593 14833 ft 381 kts 277°
2026-04-14 13:59 12.80081 78.50908 14350 ft 377 kts 277°
2026-04-14 13:59 12.80348 78.48247 13895 ft 374 kts 277°
2026-04-14 13:59 12.80612 78.45603 13380 ft 371 kts 277°
2026-04-14 14:00 12.80873 78.42987 12875 ft 368 kts 277°
2026-04-14 14:00 12.81132 78.40390 12375 ft 365 kts 277°
2026-04-14 14:00 12.81388 78.37820 11924 ft 361 kts 277°
2026-04-14 14:00 12.81641 78.35280 11451 ft 357 kts 277°
2026-04-14 14:01 12.81893 78.32757 10975 ft 354 kts 278°
2026-04-14 14:01 12.82142 78.30259 10526 ft 351 kts 278°
2026-04-14 14:01 12.82386 78.27804 10289 ft 340 kts 278°
2026-04-14 14:01 12.82620 78.25439 10166 ft 327 kts 278°
2026-04-14 14:02 12.82845 78.23170 10073 ft 313 kts 278°
2026-04-14 14:02 12.83060 78.20996 9951 ft 302 kts 278°
2026-04-14 14:02 12.83271 78.18872 9623 ft 298 kts 278°
2026-04-14 14:02 12.83482 78.16771 9217 ft 297 kts 278°
2026-04-14 14:03 12.83694 78.14668 8798 ft 296 kts 278°
2026-04-14 14:03 12.83904 78.12564 8397 ft 296 kts 278°
2026-04-14 14:03 12.84112 78.10472 7952 ft 297 kts 277°
2026-04-14 14:03 12.84320 78.08377 7625 ft 294 kts 277°
2026-04-14 14:04 12.84528 78.06284 7188 ft 296 kts 277°
2026-04-14 14:04 12.84737 78.04187 6839 ft 295 kts 276°
2026-04-14 14:04 12.84945 78.02095 6450 ft 296 kts 276°
2026-04-14 14:04 12.85153 78.00001 6127 ft 293 kts 276°
2026-04-14 14:05 12.85356 77.97940 6029 ft 295 kts 276°
2026-04-14 14:05 12.85561 77.95843 6006 ft 295 kts 276°
2026-04-14 14:05 12.85768 77.93737 6011 ft 300 kts 275°
2026-04-14 14:05 12.85976 77.91627 6011 ft 295 kts 276°
2026-04-14 14:06 12.86185 77.89532 6015 ft 298 kts 277°
2026-04-14 14:06 12.86820 77.87566 6014 ft 295 kts 303°
2026-04-14 14:06 12.88210 77.86060 6018 ft 292 kts 329°
2026-04-14 14:06 12.90031 77.85179 6018 ft 290 kts 342°
2026-04-14 14:07 12.91941 77.84526 6016 ft 289 kts 345°
2026-04-14 14:07 12.93839 77.83899 6016 ft 281 kts 344°
2026-04-14 14:07 12.95425 77.83343 6017 ft 268 kts 343°
2026-04-14 14:07 12.97124 77.82709 6013 ft 253 kts 342°
2026-04-14 14:08 12.98734 77.82085 6020 ft 246 kts 342°
2026-04-14 14:08 13.00341 77.81455 6017 ft 247 kts 341°
2026-04-14 14:08 13.01943 77.80822 6018 ft 246 kts 341°
2026-04-14 14:08 13.03534 77.80190 6019 ft 245 kts 341°
2026-04-14 14:09 13.05125 77.79558 6018 ft 247 kts 341°
2026-04-14 14:09 13.06735 77.78919 6019 ft 249 kts 341°
2026-04-14 14:09 13.08344 77.78279 6016 ft 248 kts 341°
2026-04-14 14:09 13.09794 77.77345 6021 ft 251 kts 313°
2026-04-14 14:10 13.10632 77.75787 6022 ft 251 kts 281°
2026-04-14 14:10 13.10782 77.74020 6017 ft 249 kts 269°
2026-04-14 14:10 13.10751 77.72233 6018 ft 250 kts 266°
2026-04-14 14:10 13.10703 77.70480 6021 ft 248 kts 268°
2026-04-14 14:11 13.10678 77.68719 6022 ft 247 kts 269°
2026-04-14 14:11 13.10680 77.66919 6019 ft 251 kts 269°
2026-04-14 14:11 13.10698 77.65163 6015 ft 246 kts 270°
2026-04-14 14:11 13.10722 77.63487 6021 ft 229 kts 270°
2026-04-14 14:12 13.10748 77.61918 6020 ft 218 kts 270°
2026-04-14 14:12 13.10775 77.60345 6018 ft 221 kts 270°
2026-04-14 14:12 13.10801 77.58768 6018 ft 221 kts 270°
2026-04-14 14:12 13.10827 77.57194 6017 ft 220 kts 270°
2026-04-14 14:13 13.10942 77.55634 6006 ft 220 kts 287°
2026-04-14 14:13 13.11716 77.54291 6013 ft 221 kts 316°
2026-04-14 14:13 13.12967 77.53395 6009 ft 218 kts 339°
2026-04-14 14:13 13.14414 77.53015 6011 ft 212 kts 359°
2026-04-14 14:14 13.15855 77.53156 6011 ft 206 kts 19°
2026-04-14 14:14 13.17145 77.53780 6012 ft 206 kts 39°
2026-04-14 14:14 13.18141 77.54812 6013 ft 202 kts 58°
2026-04-14 14:14 13.18796 77.56074 6017 ft 201 kts 66°
2026-04-14 14:15 13.19409 77.57325 6012 ft 184 kts 65°
2026-04-14 14:15 13.19949 77.58398 6000 ft 156 kts 65°
2026-04-14 14:15 13.20446 77.59386 6019 ft 160 kts 65°
2026-04-14 14:15 13.20855 77.60431 5908 ft 154 kts 80°
2026-04-14 14:16 13.21002 77.61514 5672 ft 153 kts 86°
2026-04-14 14:16 13.21075 77.62634 5168 ft 162 kts 90°
2026-04-14 14:16 13.21057 77.63820 4629 ft 166 kts 96°
2026-04-14 14:17 13.20803 77.66166 3676 ft 163 kts 95°
2026-04-14 14:17 13.20757 77.67316 3307 ft 158 kts 91°
2026-04-14 14:17 13.20732 77.68381 3148 ft 143 kts 93°
2026-04-14 14:17 13.20714 77.69387 3030 ft 134 kts 92°
2026-04-14 14:18 13.20701 77.70215 3011 ft 89 kts 91°
2026-04-14 14:18 13.20698 77.70642 3011 ft 31 kts 91°
2026-04-14 14:18 13.20699 77.70783 3011 ft 19 kts 90°
2026-04-14 14:18 13.20675 77.70921 3010 ft 20 kts 114°
2026-04-14 14:19 13.20603 77.71048 3010 ft 20 kts 120°
2026-04-14 14:19 13.20533 77.71175 3011 ft 20 kts 112°
2026-04-14 14:19 13.20466 77.71255 3014 ft 16 kts 172°
2026-04-14 14:19 13.20351 77.71258 3011 ft 17 kts 180°
2026-04-14 14:20 13.20315 77.71257 3011 ft 0 kts 180°
2026-04-14 14:20 13.20293 77.71256 3011 ft 7 kts 185°
2026-04-14 14:20 13.20217 77.71246 3014 ft 14 kts 182°
2026-04-14 14:21 13.20176 77.71245 3014 ft 0 kts 181°